This is the latest recevied weather packets stored in our database for station/object VE6HFD-WX. If no packets are shown the sender has not sent any weather packets the latest 10 day(s).
| Time | Temp. | Humidity | Pressure | Rain* | Wind** | Luminosity | Snow |
|---|---|---|---|---|---|---|---|
| 1788436871 | 7.78° C | 93% | 996 hPa | 0 mm | - | - | - |
| 1788436541 | 7.22° C | 94% | 996 hPa | 0 mm | - | - | - |
| 1788436211 | 6.67° C | 93% | 996 hPa | 0 mm | - | - | - |
| 1788435911 | 6.11° C | 92% | 996.1 hPa | 0 mm | - | - | - |
| 1788435581 | 6.67° C | 89% | 996.2 hPa | 0 mm | - | - | - |
| 1788435281 | 7.78° C | 91% | 996 hPa | 0 mm | - | - | - |
| 1788434951 | 7.78° C | 91% | 996 hPa | 0 mm | - | - | - |
| 1788434651 | 7.78° C | 91% | 995.8 hPa | 0 mm | - | - | - |
| 1788434351 | 8.33° C | 92% | 995.7 hPa | 0 mm | - | - | - |
| 1788434051 | 8.33° C | 91% | 995.7 hPa | 0 mm | - | - | - |
| 1788433751 | 8.33° C | 91% | 995.8 hPa | 0 mm | - | - | - |
| 1788433421 | 8.33° C | 91% | 995.8 hPa | 0 mm | - | - | - |
| 1788433121 | 8.33° C | 91% | 995.8 hPa | 0 mm | - | - | - |
| 1788432791 | 8.33° C | 91% | 995.8 hPa | 0 mm | - | - | - |
| 1788432461 | 8.89° C | 90% | 995.7 hPa | 0 mm | - | - | - |
| 1788432131 | 8.89° C | 89% | 995.8 hPa | 0 mm | - | - | - |
| 1788431801 | 9.44° C | 90% | 996 hPa | 0 mm | - | - | - |
| 1788431501 | 9.44° C | 90% | 995.8 hPa | 0 mm | - | - | - |
| 1788431171 | 9.44° C | 90% | 996 hPa | 0 mm | - | - | - |
| 1788430871 | 10° C | 90% | 995.8 hPa | 0 mm | - | - | - |
| 1788430571 | 10° C | 90% | 995.9 hPa | 0 mm | - | - | - |
| 1788430262 | 10° C | 89% | 995.7 hPa | 0 mm | - | - | - |
| 1788429941 | 10° C | 89% | 995.7 hPa | 0 mm | - | - | - |
| 1788429611 | 10° C | 90% | 995.6 hPa | 0 mm | - | - | - |
| 1788429311 | 10° C | 89% | 995.6 hPa | 0 mm | - | - | - |
* Rain latest hour (hover to see other rain measurements)
** Current wind speed in m/s (hover to see current wind gust speed)